| time (UTC) | temp C | wind direction | speed KPH | gust KPH | rain 1hr cm | rain 24hr cm | rain mn cm | humidity % | barometer mb |
| 20260505213114 | 20 | 115 | 1.6 | 14.5 | 0.00 | 0.03 | 0.03 | 62 | 1003.7 |
| 20260505211555 | 20 | 115 | 0.0 | 12.9 | 0.00 | 0.03 | 0.03 | 63 | 1003.7 |
| 20260505210055 | 21 | 115 | 3.2 | 22.5 | 0.00 | 0.03 | 0.03 | 61 | 1003.6 |
| 20260505204540 | 21 | 116 | 4.8 | 20.9 | 0.00 | 0.03 | 0.03 | 60 | 1003.5 |
| 20260505203054 | 21 | 116 | 3.2 | 14.5 | 0.00 | 0.03 | 0.03 | 59 | 1003.5 |
| 20260505201544 | 21 | 116 | 4.8 | 20.9 | 0.00 | 0.03 | 0.03 | 59 | 1003.6 |
| 20260505200046 | 21 | 116 | 3.2 | 29.0 | 0.00 | 0.03 | 0.03 | 60 | 1003.7 |
| 20260505194538 | 21 | 117 | 1.6 | 29.0 | 0.00 | 0.03 | 0.03 | 60 | 1003.9 |
| 20260505193036 | 21 | 117 | 1.6 | 27.4 | 0.00 | 0.03 | 0.03 | 59 | 1003.9 |
| 20260505191534 | 21 | 117 | 3.2 | 20.9 | 0.00 | 0.03 | 0.03 | 59 | 1004.2 |
| 20260505190035 | 21 | 117 | 1.6 | 20.9 | 0.00 | 0.03 | 0.03 | 58 | 1004.3 |
| 20260505184519 | 21 | 117 | 1.6 | 17.7 | 0.03 | 0.03 | 0.03 | 59 | 1004.4 |
| 20260505183022 | 21 | 117 | 3.2 | 14.5 | 0.03 | 0.03 | 0.03 | 59 | 1004.5 |
| 20260505181519 | 21 | 117 | 3.2 | 19.3 | 0.03 | 0.03 | 0.03 | 60 | 1004.7 |
| 20260505180019 | 21 | 117 | 3.2 | 16.1 | 0.03 | 0.03 | 0.03 | 59 | 1004.9 |
| 20260505174515 | 21 | 77 | 4.8 | 24.1 | 0.00 | 0.00 | 0.00 | 59 | 1005.1 |
| 20260505173012 | 21 | 61 | 4.8 | 17.7 | 0.00 | 0.00 | 0.00 | 59 | 1005.5 |
| 20260505171510 | 20 | 22 | 4.8 | 14.5 | 0.00 | 0.00 | 0.00 | 59 | 1005.7 |
| 20260505170015 | 21 | 344 | 0.0 | 0.0 | 0.00 | 0.00 | 0.00 | 60 | 1005.9 |
| 20260505164557 | 22 | 339 | 0.0 | 0.0 | 0.00 | 0.00 | 0.00 | 56 | 1006.1 |
| 20260505163056 | 23 | 340 | 0.0 | 0.0 | 0.00 | 0.00 | 0.00 | 53 | 1006.3 |
| 20260505161613 | 24 | 340 | 0.0 | 0.0 | 0.00 | 0.00 | 0.00 | 53 | 1006.6 |
| 20260505153059 | 23 | 343 | 0.0 | 0.0 | 0.00 | 0.00 | 0.00 | 53 | 1007.4 |
| 20260505151558 | 23 | 342 | 0.0 | 0.0 | 0.00 | 0.00 | 0.00 | 56 | 1007.5 |
| 20260505124556 | 17 | 338 | 0.0 | 0.0 | 0.00 | 0.00 | 0.00 | 64 | 1008.2 |
| 20260505123055 | 18 | 341 | 0.0 | 0.0 | 0.00 | 0.00 | 0.00 | 63 | 1008.2 |
| 20260505121537 | 17 | 342 | 0.0 | 0.0 | 0.00 | 0.00 | 0.00 | 70 | 1008.3 |
| 20260505120039 | 17 | 342 | 0.0 | 0.0 | 0.00 | 0.00 | 0.00 | 67 | 1008.5 |
| 20260505114538 | 16 | 345 | 0.0 | 0.0 | 0.00 | 0.00 | 0.00 | 71 | 1008.5 |
| 20260505113029 | 15 | 343 | 0.0 | 0.0 | 0.00 | 0.00 | 0.00 | 76 | 1008.5 |
| 20260505111526 | 13 | 342 | 0.0 | 0.0 | 0.00 | 0.00 | 0.00 | 79 | 1008.5 |
| 20260505101600 | 10 | 343 | 0.0 | 0.0 | 0.00 | 0.00 | 0.00 | 96 | 1008.3 |
| 20260505100059 | 7 | 344 | 0.0 | 0.0 | 0.00 | 0.00 | 0.00 | 99 | 1008.3 |
| 20260505094556 | 7 | 343 | 0.0 | 0.0 | 0.00 | 0.00 | 0.00 | 99 | 1008.3 |
| 20260505093055 | 6 | 343 | 0.0 | 0.0 | 0.00 | 0.00 | 0.00 | 100 | 1008.2 |
| 20260505091554 | 6 | 343 | 0.0 | 0.0 | 0.00 | 0.00 | 0.00 | 100 | 1008.2 |
| 20260505084554 | 6 | 343 | 0.0 | 0.0 | 0.00 | 0.00 | 0.00 | 100 | 1008.4 |
| 20260505083058 | 6 | 343 | 0.0 | 0.0 | 0.00 | 0.00 | 0.00 | 100 | 1008.4 |
| 20260505081543 | 6 | 343 | 0.0 | 0.0 | 0.00 | 0.00 | 0.00 | 100 | 1008.5 |
| 20260505080036 | 6 | 343 | 0.0 | 0.0 | 0.00 | 0.00 | 0.00 | 100 | 1008.6 |
| 20260505074522 | 6 | 343 | 0.0 | 0.0 | 0.00 | 0.00 | 0.00 | 100 | 1008.5 |
| 20260505073020 | 6 | 343 | 0.0 | 0.0 | 0.00 | 0.00 | 0.00 | 100 | 1008.5 |
| 20260505071520 | 5 | 343 | 0.0 | 0.0 | 0.00 | 0.00 | 0.00 | 100 | 1008.5 |
| 20260505070019 | 5 | 343 | 0.0 | 0.0 | 0.00 | 0.00 | 0.00 | 100 | 1008.4 |
| 20260505064520 | 5 | 343 | 0.0 | 0.0 | 0.00 | 0.00 | 0.00 | 99 | 1008.3 |
| 20260505063018 | 5 | 343 | 0.0 | 0.0 | 0.00 | 0.00 | 0.00 | 99 | 1008.4 |
| 20260505061517 | 5 | 343 | 0.0 | 0.0 | 0.00 | 0.00 | 0.00 | 99 | 1008.5 |
| 20260505060026 | 5 | 343 | 0.0 | 0.0 | 0.00 | 0.00 | 0.00 | 99 | 1008.4 |
| 20260505054505 | 5 | 343 | 0.0 | 0.0 | 0.00 | 0.00 | 0.00 | 98 | 1008.4 |
| 20260505053003 | 6 | 343 | 0.0 | 0.0 | 0.00 | 0.00 | 0.00 | 98 | 1008.4 |
| 20260505051501 | 6 | 343 | 0.0 | 0.0 | 0.00 | 0.00 | 0.00 | 98 | 1008.4 |
| 20260505041552 | 7 | 343 | 0.0 | 0.0 | 0.00 | 0.00 | 0.00 | 97 | 1008.0 |
| 20260505040052 | 7 | 343 | 0.0 | 0.0 | 0.00 | 0.00 | 0.00 | 97 | 1007.9 |
| 20260505034534 | 7 | 343 | 0.0 | 0.0 | 0.00 | 0.00 | 0.00 | 97 | 1007.9 |
| 20260505033047 | 7 | 343 | 0.0 | 0.0 | 0.00 | 0.00 | 0.00 | 98 | 1007.9 |
| 20260505031511 | 7 | 342 | 0.0 | 0.0 | 0.00 | 0.00 | 0.00 | 98 | 1007.6 |
| 20260505030011 | 7 | 342 | 0.0 | 0.0 | 0.00 | 0.00 | 0.00 | 98 | 1007.7 |
| 20260505024604 | 7 | 341 | 0.0 | 0.0 | 0.00 | 0.00 | 0.00 | 98 | 1007.9 |
| 20260505023107 | 7 | 342 | 0.0 | 0.0 | 0.00 | 0.00 | 0.00 | 99 | 1008.0 |
| 20260505021558 | 7 | 342 | 0.0 | 0.0 | 0.00 | 0.00 | 0.00 | 98 | 1007.9 |
| 20260505020057 | 7 | 342 | 0.0 | 0.0 | 0.00 | 0.00 | 0.00 | 98 | 1007.9 |
| 20260505014557 | 8 | 342 | 0.0 | 0.0 | 0.00 | 0.00 | 0.00 | 98 | 1008.0 |
| 20260505013056 | 8 | 341 | 0.0 | 0.0 | 0.00 | 0.00 | 0.00 | 98 | 1008.0 |
| 20260505011600 | 7 | 342 | 0.0 | 0.0 | 0.00 | 0.00 | 0.00 | 98 | 1007.8 |
| 20260505010058 | 7 | 341 | 0.0 | 0.0 | 0.00 | 0.00 | 0.00 | 97 | 1007.6 |
| 20260505004549 | 7 | 342 | 0.0 | 0.0 | 0.00 | 0.00 | 0.00 | 97 | 1007.3 |
| 20260505003043 | 7 | 342 | 0.0 | 0.0 | 0.00 | 0.00 | 0.00 | 96 | 1007.0 |
| 20260505001544 | 8 | 342 | 0.0 | 0.0 | 0.00 | 0.00 | 0.00 | 95 | 1006.7 |
| 20260505000046 | 8 | 341 | 0.0 | 0.0 | 0.00 | 0.00 | 0.00 | 94 | 1006.6 |
| 20260504234608 | 9 | 342 | 0.0 | 0.0 | 0.00 | 0.00 | 0.00 | 94 | 1006.4 |
| 20260504233042 | 10 | 342 | 0.0 | 0.0 | 0.00 | 0.00 | 0.00 | 93 | 1006.3 |
| 20260504231551 | 10 | 341 | 0.0 | 0.0 | 0.00 | 0.00 | 0.00 | 92 | 1006.3 |
| 20260504230041 | 11 | 342 | 0.0 | 0.0 | 0.00 | 0.00 | 0.00 | 91 | 1006.1 |
| 20260504224541 | 11 | 342 | 0.0 | 0.0 | 0.00 | 0.00 | 0.00 | 89 | 1006.0 |
| 20260504223030 | 12 | 342 | 0.0 | 0.0 | 0.00 | 0.00 | 0.00 | 87 | 1006.0 |
| 20260504221529 | 12 | 342 | 0.0 | 0.0 | 0.00 | 0.00 | 0.00 | 85 | 1005.9 |
| 20260504220029 | 12 | 342 | 0.0 | 0.0 | 0.00 | 0.00 | 0.00 | 87 | 1005.9 |
| 20260504214535 | 13 | 340 | 0.0 | 0.0 | 0.00 | 0.00 | 0.00 | 83 | 1006.0 |